TimeMST,TemperatureF,Dew PointF,Humidity,Sea Level PressureIn,VisibilityMPH,Wind Direction,Wind SpeedMPH,Gust SpeedMPH,PrecipitationIn,Events,Conditions,WindDirDegrees,DateUTC
12:53 AM,43.0,10.0,26,29.79,10.0,WSW,19.6,29.9,N/A,,Partly Cloudy,240,2012-11-25 07:53:00
1:53 AM,35.1,12.0,39,29.83,10.0,Variable,4.6,-,N/A,,Mostly Cloudy,0,2012-11-25 08:53:00
2:53 AM,39.0,12.9,34,29.79,10.0,SSW,9.2,-,N/A,,Clear,200,2012-11-25 09:53:00
3:53 AM,37.9,10.9,33,29.79,10.0,SW,15.0,-,N/A,,Partly Cloudy,230,2012-11-25 10:53:00
4:53 AM,36.0,12.0,37,29.82,10.0,SSW,20.7,27.6,N/A,,Clear,200,2012-11-25 11:53:00
5:53 AM,28.9,10.9,47,29.86,10.0,South,16.1,-,N/A,,Clear,190,2012-11-25 12:53:00
6:53 AM,32.0,10.9,42,29.86,10.0,SSW,15.0,-,N/A,,Clear,210,2012-11-25 13:53:00
7:53 AM,37.0,10.9,34,29.81,10.0,SW,13.8,-,N/A,,Clear,220,2012-11-25 14:53:00
8:53 AM,44.1,10.0,25,29.76,10.0,SW,21.9,29.9,N/A,,Clear,230,2012-11-25 15:53:00
9:53 AM,46.0,9.0,22,29.74,10.0,SW,19.6,28.8,N/A,,Clear,230,2012-11-25 16:53:00
10:53 AM,51.1,8.1,18,29.73,10.0,West,29.9,35.7,N/A,,Clear,270,2012-11-25 17:53:00
11:53 AM,52.0,9.0,18,29.66,10.0,WSW,27.6,34.5,N/A,,Clear,250,2012-11-25 18:53:00
12:53 PM,52.0,10.0,19,29.64,10.0,West,31.1,42.6,N/A,,Clear,280,2012-11-25 19:53:00
1:53 PM,48.0,10.9,22,29.72,10.0,West,34.5,44.9,N/A,,Overcast,270,2012-11-25 20:53:00
2:53 PM,42.1,18.0,38,29.78,10.0,WNW,36.8,41.4,N/A,,Overcast,290,2012-11-25 21:53:00
3:53 PM,39.9,19.9,45,29.83,10.0,West,19.6,-,N/A,,Overcast,270,2012-11-25 22:53:00
4:53 PM,37.9,21.0,51,29.85,10.0,WSW,19.6,34.5,N/A,,Scattered Clouds,250,2012-11-25 23:53:00
5:53 PM,37.9,21.0,51,29.90,10.0,WSW,11.5,23.0,N/A,,Scattered Clouds,240,2012-11-26 00:53:00
6:53 PM,39.0,21.9,50,29.88,10.0,WSW,17.3,24.2,N/A,,Overcast,250,2012-11-26 01:53:00
7:53 PM,37.0,19.9,50,29.87,10.0,West,19.6,26.5,N/A,,Mostly Cloudy,270,2012-11-26 02:53:00
8:53 PM,36.0,17.1,46,29.84,10.0,West,13.8,29.9,N/A,,Clear,270,2012-11-26 03:53:00
9:53 PM,32.0,19.9,61,29.85,10.0,WSW,15.0,-,N/A,,Clear,250,2012-11-26 04:53:00
10:53 PM,32.0,19.9,61,29.85,10.0,WSW,15.0,-,N/A,,Clear,240,2012-11-26 05:53:00
11:53 PM,26.1,16.0,66,29.89,10.0,West,10.4,-,N/A,,Clear,260,2012-11-26 06:53:00